Weather in Machu Picchu

Peru     13°09′44″S   72°32′41″W
temp.,
°C
wind,
m/s
gust,
m/s
humid.,
%
clouds,
%
prec.,
mm/h
press.,
hPa
HPBL,
m
16 april, fri
fri1601:00+6n119673 0.1 1019131
04:00+4sse119451 0.0 101954
07:00+5se128839 0.0 1021122
10:00+13nnw225815 0.0 10171293
13:00+13nnw326452 0.6 10151176
16:00+9nnw338757 0.8 1015508
19:00+7nnw119071 0.9 1019116
22:00+5ne119463 0.1 102118
17 april, sat
sat1701:00+4sse019529 0.1 102132
04:00+4s229213 0.0 102023
07:00+6sse228722 0.0 1021111
10:00+12nnw226234 0.0 10181228
13:00+13nnw326421 0.5 10151138
16:00+11nnw327640 0.6 1014723
19:00+7n229777 0.8 1018157
22:00+6nnw239989 0.2 1021154
18 april, sun
sun1801:00+6nnw129669 0.4 1020178
04:00+6wsw019258 0.0 1020157
07:00+7s118535 0.0 1021186
10:00+12nw116358 0.0 10191194
13:00+13nw226155 0.4 10141305
16:00+12nnw327142 0.4 1013854
19:00+7n229478 1.0 1018210
22:00+6nnw129984 0.3 102168
19 april, mon
mon1901:00+6n229986 0.4 1020122
04:00+6n019691 0.2 1020148
07:00+6nne019175 0.3 1022193
10:00+11nw116744 0.1 1020950
13:00+13nnw225944 0.9 10151283
16:00+12nnw326631 0.5 1013994
19:00+7nnw239786 1.0 1018188
22:00+7nnw229788 0.6 1021191
20 april, tue
tue2001:00+6nnw129377 0.9 1019230
04:00+6nw019065 0.1 1019151
07:00+7w008339 0.1 1020316
10:00+12nnw215819 0.0 10181298
13:00+13nnw325942 1.0 10151407
16:00+12nnw327099 0.9 1013778
19:00+7nnw229377 1.4 1018256
22:00+7nnw1295100 0.3 1021147